Weather History for Perryton, TX

Change the Weather History Date:

Friday, May 3, 2013

  Actual Average Record
Temperature  
Mean Temperature 45 °F -  
Max Temperature 65 °F 71 °F 96 °F (1965)
Min Temperature 25 °F 42 °F 25 °F (2013)
Degree Days  
Heating Degree Days 20    
Moisture  
Dew Point 19 °F    
Average Humidity 41    
Maximum Humidity 78    
Minimum Humidity 16    
Precipitation  
Precipitation 0.00 in - - ()
Sea Level Pressure  
Sea Level Pressure 30.22 in    
Wind  
Wind Speed 11 mph (NW)    
Max Wind Speed 22 mph    
Max Gust Speed 28 mph    
Visibility 10 miles    
Events      
Averages and records for this station are not official NWS values.
T = Trace of Precipitation, MM = Missing Value Source: NWS Daily Summary

Daily Weather History Graph

Daily Weather History Graph

Search for Another Location

Airport:

Trip Planner

Search our weather history database for the weather conditions in past years. The results will help you decide how hot, cold, wet, or windy it might be!

Date:

Astronomy

May. 03, 2013 Rise Set
Actual Time 6:47 AM CDT 8:32 PM CDT
Civil Twilight 6:19 AM CDT 9:00 PM CDT
Nautical Twilight 5:45 AM CDT 9:34 PM CDT
Astronomical Twilight 5:10 AM CDT 10:10 PM CDT
Moon 3:02 AM CDT (5/3) 2:39 PM CDT (5/3)
Length of Visible Light 14h 41m
Length of Day
13h 45m
Last Quarter, 37% of the Moon is Illuminated
May 3
Last Quarter
May 9
New
May 17
First Quarter
May 24
Full
May 31
Last Quarter

Hourly Weather History & Observations

Time (CDT) Temp. Windchill Dew Point Humidity Pressure Visibility Wind Dir Wind Speed Gust Speed Precip Events Conditions
12:15 AM 29.1 °F 21.3 °F 20.3 °F 70% 30.46 in 10.0 mi NW 8.1 mph - N/A   Clear
12:35 AM 28.2 °F 20.2 °F 20.3 °F 72% 30.46 in 10.0 mi NW 8.1 mph - N/A   Clear
12:55 AM 28.0 °F 19.3 °F 20.3 °F 73% 30.46 in 10.0 mi NW 9.2 mph - N/A   Clear
1:15 AM 28.4 °F 19.7 °F 20.3 °F 72% 30.45 in 10.0 mi NW 9.2 mph - N/A   Clear
1:35 AM 28.2 °F 20.2 °F 20.3 °F 72% 30.44 in 10.0 mi NW 8.1 mph - N/A   Clear
1:55 AM 27.9 °F 19.1 °F 20.3 °F 73% 30.43 in 10.0 mi NW 9.2 mph - N/A   Clear
2:15 AM 27.5 °F 18.0 °F 20.3 °F 74% 30.42 in 10.0 mi WNW 10.4 mph - N/A   Clear
2:35 AM 28.2 °F 20.2 °F 20.7 °F 73% 30.41 in 10.0 mi WNW 8.1 mph - N/A   Clear
3:15 AM 27.0 °F 17.3 °F 19.9 °F 75% 30.39 in 10.0 mi West 10.4 mph - N/A   Clear
3:35 AM 27.9 °F 19.8 °F 19.9 °F 72% 30.39 in 10.0 mi West 8.1 mph - N/A   Clear
3:55 AM 27.1 °F 18.2 °F 19.8 °F 74% 30.38 in 10.0 mi West 9.2 mph - N/A   Clear
4:15 AM 27.1 °F 18.2 °F 19.6 °F 73% 30.38 in 10.0 mi West 9.2 mph - N/A   Clear
4:35 AM 27.3 °F 18.4 °F 19.8 °F 73% 30.38 in 10.0 mi West 9.2 mph - N/A   Clear
4:55 AM 27.3 °F 19.1 °F 19.4 °F 72% 30.37 in 10.0 mi West 8.1 mph - N/A   Clear
5:15 AM 26.6 °F 17.5 °F 19.6 °F 75% 30.36 in 10.0 mi West 9.2 mph - N/A   Clear
5:35 AM 26.6 °F 18.2 °F 19.4 °F 74% 30.36 in 10.0 mi West 8.1 mph - N/A   Clear
5:55 AM 25.7 °F 17.1 °F 19.2 °F 76% 30.35 in 10.0 mi West 8.1 mph - N/A   Clear
6:15 AM 25.0 °F 16.3 °F 18.9 °F 78% 30.35 in 10.0 mi West 8.1 mph - N/A   Clear
6:35 AM 26.6 °F 17.5 °F 19.4 °F 74% 30.36 in 10.0 mi West 9.2 mph - N/A   Clear
6:55 AM 27.0 °F 17.3 °F 19.2 °F 73% 30.35 in 10.0 mi West 10.4 mph - N/A   Clear
7:15 AM 27.5 °F 18.0 °F 19.4 °F 72% 30.35 in 10.0 mi West 10.4 mph - N/A   Clear
7:35 AM 28.9 °F 19.8 °F 20.1 °F 70% 30.35 in 10.0 mi West 10.4 mph - N/A   Clear
7:55 AM 32.0 °F 23.0 °F 20.5 °F 63% 30.34 in 10.0 mi West 11.5 mph - N/A   Clear
8:15 AM 35.6 °F 28.6 °F 21.2 °F 56% 30.33 in 10.0 mi West 9.2 mph - N/A   Clear
8:35 AM 39.7 °F 33.7 °F 21.4 °F 48% 30.33 in 10.0 mi West 9.2 mph - N/A   Clear
8:55 AM 44.2 °F 38.0 °F 19.8 °F 38% 30.33 in 10.0 mi West 12.7 mph - N/A   Clear
9:15 AM 47.3 °F - 19.2 °F 33% 30.31 in 10.0 mi West 13.8 mph 18.4 mph N/A   Clear
9:35 AM 49.8 °F - 18.7 °F 29% 30.31 in 10.0 mi West 12.7 mph - N/A   Clear
9:55 AM 51.3 °F - 18.0 °F 27% 30.29 in 10.0 mi West 12.7 mph - N/A   Clear
10:15 AM 53.4 °F - 16.9 °F 24% 30.28 in 10.0 mi WNW 15.0 mph - N/A   Clear
10:35 AM 54.1 °F - 16.0 °F 22% 30.28 in 10.0 mi West 13.8 mph 19.6 mph N/A   Clear
10:55 AM 54.9 °F - 15.3 °F 21% 30.27 in 10.0 mi WNW 11.5 mph 20.7 mph N/A   Clear
11:15 AM 55.6 °F - 14.2 °F 20% 30.26 in 10.0 mi NW 10.4 mph 20.7 mph N/A   Clear
11:35 AM 57.0 °F - 15.4 °F 20% 30.25 in 10.0 mi NW 13.8 mph 18.4 mph N/A   Clear
11:55 AM 57.4 °F - 14.5 °F 19% 30.24 in 10.0 mi NW 15.0 mph 23.0 mph N/A   Clear
12:15 PM 57.9 °F - 14.9 °F 19% 30.23 in 10.0 mi NW 13.8 mph 25.3 mph N/A   Clear
12:35 PM 59.4 °F - 16.7 °F 19% 30.21 in 10.0 mi NW 13.8 mph 20.7 mph N/A   Clear
12:55 PM 59.9 °F - 15.3 °F 18% 30.20 in 10.0 mi NNW 18.4 mph 24.2 mph N/A   Clear
1:15 PM 59.9 °F - 14.7 °F 17% 30.19 in 10.0 mi NNW 13.8 mph 21.9 mph N/A   Clear
1:35 PM 59.7 °F - 14.4 °F 17% 30.17 in 10.0 mi North 9.2 mph 16.1 mph N/A   Clear
1:55 PM 61.0 °F - 14.5 °F 16% 30.17 in 10.0 mi North 17.3 mph 25.3 mph N/A   Clear
2:15 PM 61.7 °F - 14.9 °F 16% 30.16 in 10.0 mi NNW 12.7 mph 24.2 mph N/A   Clear
2:35 PM 61.3 °F - 16.0 °F 17% 30.14 in 10.0 mi NNW 18.4 mph 23.0 mph N/A   Clear
2:55 PM 62.6 °F - 16.7 °F 17% 30.13 in 10.0 mi North 15.0 mph 24.2 mph N/A   Clear
3:15 PM 63.3 °F - 17.4 °F 17% 30.12 in 10.0 mi NW 12.7 mph 24.2 mph N/A   Clear
3:35 PM 63.5 °F - 18.1 °F 17% 30.11 in 10.0 mi NW 16.1 mph 23.0 mph N/A   Clear
3:55 PM 64.4 °F - 17.6 °F 16% 30.10 in 10.0 mi NNW 17.3 mph 23.0 mph N/A   Clear
4:15 PM 64.6 °F - 17.4 °F 16% 30.08 in 10.0 mi NNW 15.0 mph 24.2 mph N/A   Clear
4:35 PM 64.8 °F - 16.9 °F 16% 30.07 in 10.0 mi NNW 17.3 mph 23.0 mph N/A   Clear
4:55 PM 64.9 °F - 17.6 °F 16% 30.06 in 10.0 mi NW 21.9 mph 27.6 mph N/A   Clear
5:15 PM 64.9 °F - 17.8 °F 16% 30.05 in 10.0 mi NW 10.4 mph 19.6 mph N/A   Clear
5:35 PM 64.9 °F - 17.8 °F 16% 30.05 in 10.0 mi NNW 13.8 mph 24.2 mph N/A   Clear
5:55 PM 65.8 °F - 18.3 °F 16% 30.04 in 10.0 mi NNW 17.3 mph 21.9 mph N/A   Clear
6:15 PM 64.8 °F - 19.0 °F 17% 30.04 in 10.0 mi North 13.8 mph 26.5 mph N/A   Clear
6:35 PM 64.0 °F - 19.9 °F 18% 30.04 in 10.0 mi NNE 15.0 mph 18.4 mph N/A   Clear
6:55 PM 64.2 °F - 19.8 °F 18% 30.04 in 10.0 mi North 16.1 mph 19.6 mph N/A   Clear
7:15 PM 62.6 °F - 20.1 °F 20% 30.04 in 10.0 mi NNE 13.8 mph - N/A   Clear
7:35 PM 61.7 °F - 20.8 °F 21% 30.04 in 10.0 mi NE 12.7 mph - N/A   Clear
7:55 PM 59.9 °F - 20.8 °F 22% 30.04 in 10.0 mi NNE 11.5 mph - N/A   Clear
8:15 PM 57.9 °F - 21.2 °F 24% 30.04 in 10.0 mi NE 13.8 mph - N/A   Clear
8:35 PM 55.4 °F - 21.4 °F 27% 30.05 in 10.0 mi NNE 11.5 mph - N/A   Clear
8:55 PM 52.7 °F - 22.1 °F 30% 30.05 in 10.0 mi NE 5.8 mph - N/A   Clear
9:15 PM 49.5 °F - 21.9 °F 34% 30.05 in 10.0 mi NE 8.1 mph - N/A   Clear
9:35 PM 48.7 °F - 22.6 °F 36% 30.06 in 10.0 mi NE 6.9 mph - N/A   Clear
9:55 PM 47.7 °F - 22.5 °F 37% 30.06 in 10.0 mi ENE 8.1 mph - N/A   Clear
10:15 PM 47.5 °F - 21.2 °F 35% 30.07 in 10.0 mi ENE 8.1 mph - N/A   Clear
10:35 PM 45.0 °F 40.6 °F 23.2 °F 42% 30.08 in 10.0 mi NE 8.1 mph - N/A   Clear
10:55 PM 46.4 °F 42.9 °F 22.1 °F 38% 30.08 in 10.0 mi ENE 6.9 mph - N/A   Clear
11:15 PM 43.7 °F 38.6 °F 23.0 °F 44% 30.08 in 10.0 mi NE 9.2 mph - N/A   Clear
11:35 PM 43.3 °F 37.7 °F 23.0 °F 45% 30.06 in 10.0 mi ENE 10.4 mph - N/A   Clear
11:55 PM 42.6 °F 38.4 °F 22.8 °F 46% 30.06 in 10.0 mi ENE 6.9 mph - N/A   Clear